Location: Unspecified
(45.2314°N, 0.0000°E)
Time: 14:09:53
(UTC+00:00)

NOAA 17 DEB - Visible Passes

Search period start: 04 April 2026 00:00
Search period end: 14 April 2026 00:00
Orbit: 750 x 759 km, 98.9° (Epoch: 28 March)

Date Brightness Start Highest point End Pass type
(mag) Time Alt. Az. Time Alt. Az. Time Alt. Az.
5 Apr ? 04:34:00 10° NE 04:36:49 15° E 04:39:37 10° SE visible
7 Apr ? 04:52:15 10° NE 04:56:07 22° E 04:59:58 10° SE visible
10 Apr ? 04:32:31 10° ENE 04:35:07 14° E 04:37:42 10° ESE visible
12 Apr ? 04:50:38 10° NE 04:54:24 21° E 04:58:08 10° SE visible
